FW4110 Weather Reports


time (UTC)temp
F
wind
direction
speed
knots
gust
knots
rain 1hr
in
rain 24hr
in
rain mn
in
humidity
%
barometer
mb
20260502170128 58 344 3.5 12.2 0.00 0.00 0.00 67 1022.5
20260502163025 57 4 2.6 8.7 0.00 0.00 0.00 64 1022.4
20260502161524 57 39 4.3 11.3 0.00 0.00 0.00 66 1022.5
20260502151507 57 76 2.6 8.7 0.00 0.00 0.00 45 1022.3
20260502123020 44 346 0.0 2.6 0.00 0.00 0.00 87 1021.1
20260502121518 43 340 0.0 0.9 0.00 0.00 0.00 86 1021.1
20260502114510 0 0.0 0.0 0.00 0.00 0.00 1020.5
20260502113004 0 0.0 0.0 0.00 0.00 0.00 1020.3
20260502111559 0 0.0 0.0 0.00 0.00 0.00 1020.4
20260502110053 40 241 0.0 0.0 0.00 0.00 0.00 84 1020.1
20260502104553 41 241 0.0 0.0 0.00 0.00 0.00 83 1020.0
20260502103048 41 241 0.0 0.0 0.00 0.00 0.00 83 1019.9
20260502101615 41 241 0.0 0.0 0.00 0.00 0.00 82 1019.8
20260502071511 43 41 0.0 0.0 0.00 0.00 0.00 75 1019.4
20260502070137 43 41 0.0 0.0 0.00 0.00 0.00 81 1019.7
20260502064503 44 40 0.0 0.0 0.00 0.00 0.00 84 1019.8
20260502063106 45 40 0.0 0.0 0.00 0.00 0.00 85 1019.7
20260502061602 46 41 0.0 0.0 0.00 0.00 0.00 84 1019.7
20260502060153 46 40 0.0 4.3 0.00 0.00 0.00 84 1019.7
20260502054555 46 187 0.9 3.5 0.00 0.00 0.00 85 1019.5
20260502053046 46 154 0.0 0.0 0.00 0.00 0.00 85 1019.5
20260502051601 46 156 0.0 0.0 0.00 0.00 0.00 84 1019.4
20260502050040 46 156 0.0 0.0 0.00 0.00 0.00 86 1019.5
20260502044537 46 156 0.0 0.0 0.00 0.00 0.00 86 1019.6
20260502043036 47 156 0.0 0.0 0.00 0.00 0.00 85 1019.6
20260502041536 48 156 0.0 0.0 0.00 0.00 0.00 83 1019.6
20260502040032 49 156 0.0 0.9 0.00 0.00 0.00 81 1019.7
20260502034531 50 195 0.0 0.0 0.00 0.02 0.00 81 1019.9
20260502033029 50 196 0.0 0.0 0.00 0.02 0.00 80 1020.0
20260502031526 51 160 0.0 0.9 0.00 0.02 0.00 78 1020.0
20260502030025 50 193 0.0 0.9 0.00 0.02 0.00 77 1020.0
20260502024523 51 194 0.0 1.7 0.00 0.02 0.00 77 1020.0
20260502023021 51 228 0.0 0.0 0.00 0.02 0.00 77 1020.0
20260502021519 51 228 0.0 0.9 0.00 0.02 0.00 77 1019.8
20260502020017 50 257 0.0 0.9 0.00 0.02 0.00 77 1019.7
20260502014519 50 264 0.0 0.0 0.00 0.02 0.00 76 1019.4
20260502013013 51 264 0.0 0.0 0.00 0.02 0.00 76 1019.0
20260502011610 52 264 0.0 0.0 0.00 0.02 0.00 74 1019.0
20260502010015 54 264 0.0 0.0 0.00 0.02 0.00 72 1018.7
20260502004507 57 264 0.0 0.0 0.00 0.02 0.00 68 1018.5
20260502003105 60 264 0.0 0.9 0.00 0.02 0.00 64 1018.5
20260502001503 62 322 0.0 1.7 0.00 0.02 0.00 59 1018.4
20260502000002 62 289 0.9 3.5 0.00 0.02 0.00 56 1018.4
20260501234608 61 17 1.7 5.2 0.00 0.02 0.00 55 1018.4
20260501233100 62 352 4.3 11.3 0.00 0.02 0.00 55 1018.3
20260501231655 62 275 2.6 7.0 0.00 0.02 0.00 55 1018.0
20260501230051 62 306 1.7 7.0 0.00 0.02 0.00 55 1018.2
20260501224647 62 24 6.1 11.3 0.00 0.02 0.00 54 1018.2
20260501223044 63 358 1.7 7.0 0.00 0.02 0.00 54 1018.3
20260501221542 63 341 1.7 7.0 0.00 0.02 0.00 53 1018.5
20260501220108 63 351 1.7 7.8 0.00 0.02 0.00 55 1018.8
20260501214537 63 340 2.6 10.4 0.00 0.02 0.00 52 1018.9
20260501213032 63 341 2.6 8.7 0.00 0.02 0.00 56 1019.2
20260501211529 63 354 3.5 10.4 0.00 0.02 0.00 52 1019.2
20260501210032 62 358 0.9 8.7 0.00 0.02 0.00 55 1019.5
20260501204527 63 343 6.1 13.0 0.00 0.02 0.00 52 1019.9
20260501203029 63 356 3.5 7.8 0.00 0.02 0.00 55 1020.1
20260501201534 63 336 5.2 7.8 0.00 0.02 0.00 52 1020.3
20260501200017 63 327 1.7 8.7 0.00 0.02 0.00 55 1020.5
20260501194517 62 20 0.0 6.1 0.00 0.02 0.00 58 1020.6
20260501193011 62 27 1.7 6.1 0.00 0.02 0.00 55 1020.7
20260501191511 62 63 0.0 7.8 0.00 0.02 0.00 55 1020.8
20260501190007 61 191 0.0 5.2 0.00 0.02 0.00 55 1020.9
20260501184509 61 351 3.5 6.1 0.00 0.02 0.00 57 1021.0
20260501183111 61 213 1.7 8.7 0.00 0.02 0.00 54 1020.8
20260501181609 60 346 2.6 8.7 0.00 0.02 0.00 58 1020.9
20260501180055 61 3 0.0 7.0 0.00 0.02 0.00 56 1020.8
20260501174555 60 356 0.9 9.6 0.00 0.02 0.00 55 1021.0